Location: Caltech
(34.1382°N, 118.1253°W)
Time: 16:32:25
(UTC-08:00)

ALOS - Visible Passes

Search period start: 27 February 2015 00:00
Search period end: 09 March 2015 01:00
Orbit: 686 x 689 km, 97.9° (Epoch: 27 February)

Date Brightness Start Highest point End Pass type
(mag) Time Alt. Az. Time Alt. Az. Time Alt. Az.
02 Mar 5.1 20:36:20 10° NNW 20:36:20 10° NNW 20:36:20 10° NNW visible
04 Mar 4.7 20:14:42 13° N 20:14:42 13° N 20:15:08 10° N visible
05 Mar 5.1 20:53:09 11° NNW 20:53:09 11° NNW 20:53:19 10° NNW visible
06 Mar 4.5 19:53:03 13° NNE 19:53:03 13° NNE 19:53:40 10° N visible
07 Mar 4.7 20:31:31 15° N 20:31:31 15° N 20:32:17 10° N visible
08 Mar 4.5 20:31:25 12° NNE 20:31:25 12° NNE 20:31:52 10° NNE visible
08 Mar 5.3 22:09:59 11° NNW 22:09:59 11° NNW 22:10:05 10° NNW visible
